Location: Newark
(49.8969°N, 3.3422°E)
Time: 15:33:27
(UTC+00:00)

Tiros 1 - Pass Details

Date: 16 May 2021
Orbit: 630 x 664 km, 48.4° (Epoch: 11 June)

Event Time Altitude Azimuth Distance (km) Brightness Sun altitude
Exits shadow 02:17:27 - 268° (W) 2,396 9.7 -13.0°
Reaches altitude 10° 02:18:17 10° 268° (W) 2,075 9.4 -12.9°
Maximum altitude 02:23:04 75° 184° (S) 682 7.1 -12.4°
Drops below altitude 10° 02:27:48 10° 99° (E) 2,055 10.1 -12.0°
Sets 02:30:08 0° 98° (E) 2,959 11.0 -11.7°
